Hourly Data Report for March 23, 2017

OTTAWA INTL A
ONTARIO

45°19'00.000" N
75°40'00.000" W
114.90 m
6106001
71628
YOW

Download Data

Hourly Data (March 2017)
Hourly Data Report for March 23, 2017
TIME
LST
Temp Definition
°C
Dew Point Definition
°C
Rel Hum Definition
%
Precip. Amount Definition
mm

Wind Dir Definition
10's deg

Wind Spd Definition
km/h
Visibility Definition
km
Stn Press Definition
kPa
Hmdx Definition


Wind Chill Definition


Weather Definition


00:00 -10.3 -17.9 54   26 10 24.1 101.79   -16 LegendNANA
01:00 -11.5 -18.4 57   24 10 24.1 101.80   -17 Clear
02:00 -12.9 -18.2 65   17 5 24.1 101.81   -16 LegendNANA
03:00 -12.7 -18.2 64   22 12 24.1 101.83   -19 LegendNANA
04:00 -12.1 -18.2 61   24 14 24.1 101.86   -19 Clear
05:00 -12.2 -18.1 62   24 14 24.1 101.92   -19 LegendNANA
06:00 -12.9 -17.6 68   25 13 24.1 101.97   -20 LegendNANA
07:00 -11.4 -17.1 63   26 9 24.1 102.01   -17 Clear
08:00 -8.1 -16.6 51   29 11 24.1 102.06   -13 LegendNANA
09:00 -6.8 -15.1 52   30 21 24.1 102.07   -14 LegendNANA
10:00 -4.8 -14.2 48   29 12 24.1 102.07   -10 Clear
11:00 -3.3 -14.2 43   24 10 24.1 102.03   -7 LegendNANA
12:00 -1.1 -13.7 38   29 16 24.1 101.99   -6 LegendNANA
13:00 -0.7 -15.1 33   28 26 24.1 101.91   -7 Clear
14:00 0.2 -14.3 33   30 23 24.1 101.86     LegendNANA
15:00 0.6 -15.5 29   29 10 24.1 101.78     LegendNANA
16:00 1.1 -16.9 25   36 2 24.1 101.71     Mainly Clear
17:00 1.5 -16.1 26   36 3 24.1 101.61     LegendNANA
18:00 -0.1 -12.2 40   15 9 24.1 101.69   -3 LegendNANA
19:00 0.1 -8.4 53   19 16 24.1 101.70     Mostly Cloudy
20:00 -1.0 -8.3 58   18 18 24.1 101.70   -6 LegendNANA
21:00 -1.4 -9.3 55   19 19 24.1 101.64   -7 LegendNANA
22:00 -1.7 -10.1 53   18 17 24.1 101.58   -7 Cloudy
23:00 -1.8 -11.2 49   19 18 24.1 101.45   -7 LegendNANA

Notes on Data Quality.

Legend

  • E = Estimated
  • M = Missing
  • NA = Not Available*
  • [empty] = Indicates an unobserved value
Date modified: